Location: Gaast
(52.9002°N, 5.8891°E)
Time: 23:08:48
(UTC+00:00)

Cosmos 2263 Rocket - Pass Details

Date: 18 November 2025
Orbit: 822 x 847 km, 71.0° (Epoch: 04 December)

Event Time Altitude Azimuth Distance (km) Brightness Sun altitude
Rises 17:56:01 0° 306° (NW) 3,377 6.1 -20.5°
Reaches altitude 10° 18:00:15 10° 337° (NNW) 2,450 4.8 -21.1°
Maximum altitude 18:02:23 12° 360° (N) 2,307 4.4 -21.4°
Enters shadow 18:04:09 11° 18° (NNE) 2,408 4.3 -21.7°
